DateTime,Voltage,Setpoint_Voltage,VVC_ClosedLoop_Enabled,Real_Power
 03/09/2018 00:00:00,32.72,33.0,1,-18.59
 03/09/2018 00:15:00,32.72,33.0,1,-18.59
 03/09/2018 00:30:00,32.72,33.0,1,-18.59
 03/09/2018 00:45:00,32.72,33.0,1,-18.59
 03/09/2018 01:00:00,32.72,33.0,1,-18.59
 03/09/2018 01:15:00,32.72,33.0,1,-18.59
 03/09/2018 01:30:00,32.72,33.0,1,-18.59
 03/09/2018 01:45:00,32.72,33.0,1,-18.59
 03/09/2018 02:00:00,32.72,33.0,1,-18.59
 03/09/2018 02:15:00,32.72,33.0,1,-18.59
 03/09/2018 02:30:00,32.72,33.0,1,-18.59
 03/09/2018 02:45:00,32.72,33.0,1,-18.59
 03/09/2018 03:00:00,32.72,33.0,1,-18.59
 03/09/2018 03:15:00,32.72,33.0,1,-18.59
 03/09/2018 03:30:00,32.72,33.0,1,-18.59
 03/09/2018 03:45:00,32.72,33.0,1,-18.59
 03/09/2018 04:00:00,32.72,33.0,1,-18.59
 03/09/2018 04:15:00,32.72,33.0,1,-18.59
 03/09/2018 04:30:00,32.72,33.0,1,-18.59
 03/09/2018 04:45:00,32.72,33.0,1,-18.59
 03/09/2018 05:00:00,32.72,33.0,1,-18.59
 03/09/2018 05:15:00,32.72,33.0,1,-18.59
 03/09/2018 05:30:00,32.72,33.0,1,-18.59
 03/09/2018 05:45:00,32.72,33.0,1,-18.59
 03/09/2018 06:00:00,32.72,33.0,1,-18.59
 03/09/2018 06:15:00,32.72,33.0,1,-18.59
 03/09/2018 06:30:00,32.72,33.0,1,-18.59
 03/09/2018 06:45:00,32.72,33.0,1,-18.59
 03/09/2018 07:00:00,32.72,33.0,1,-18.59
 03/09/2018 07:15:00,32.72,33.0,1,-18.59
 03/09/2018 07:30:00,32.72,33.0,1,-18.59
 03/09/2018 07:45:00,32.72,33.0,1,-18.59
 03/09/2018 08:00:00,32.72,33.0,1,-18.59
 03/09/2018 08:15:00,32.72,33.0,1,-18.59
 03/09/2018 08:30:00,32.72,33.0,1,-18.59
 03/09/2018 08:45:00,32.72,33.0,1,-25.34
 03/09/2018 09:00:00,32.93,33.0,1,-25.96
 03/09/2018 09:15:00,32.89,33.0,1,-25.96
 03/09/2018 09:30:00,32.9,33.0,1,-26.01
 03/09/2018 09:45:00,32.88,33.0,1,-25.94
 03/09/2018 10:00:00,32.91,33.0,1,-25.36
 03/09/2018 10:15:00,33.01,33.0,1,-25.73
 03/09/2018 10:30:00,33.21,33.0,1,-25.96
 03/09/2018 10:45:00,33.17,33.0,1,-25.84
 03/09/2018 11:00:00,33.17,33.0,1,-25.9
 03/09/2018 11:15:00,33.15,33.0,1,-25.78
 03/09/2018 11:30:00,33.12,33.0,1,-25.92
 03/09/2018 11:45:00,33.11,33.0,1,-25.09
 03/09/2018 12:00:00,33.09,33.0,1,-24.84
 03/09/2018 12:15:00,33.08,33.0,1,-25.04
 03/09/2018 12:30:00,33.08,33.0,1,-25.12
 03/09/2018 12:45:00,33.08,33.0,1,-25.12
 03/09/2018 13:00:00,33.09,33.0,1,-25.12
 03/09/2018 13:15:00,33.1,33.0,1,-25.12
 03/09/2018 13:30:00,33.13,33.0,1,-25.12
 03/09/2018 13:45:00,33.1,33.0,1,-25.58
 03/09/2018 14:00:00,33.09,33.0,1,-25.83
 03/09/2018 14:15:00,33.03,33.0,1,-25.65
 03/09/2018 14:30:00,32.97,33.0,1,-26.28
 03/09/2018 14:45:00,32.97,33.0,1,-26.52
 03/09/2018 15:00:00,33.01,33.0,1,-26.62
 03/09/2018 15:15:00,33.03,33.0,1,-27.45
 03/09/2018 15:30:00,32.99,33.0,1,-28.16
 03/09/2018 15:45:00,33.01,33.0,1,-28.42
 03/09/2018 16:00:00,33.02,33.0,1,-28.63
 03/09/2018 16:15:00,33.05,33.0,1,-28.75
 03/09/2018 16:30:00,33.06,33.0,1,-29.14
 03/09/2018 16:45:00,33.04,33.0,1,-29.23
 03/09/2018 17:00:00,33.02,33.0,1,-29.83
 03/09/2018 17:15:00,33.1,33.0,1,-29.72
 03/09/2018 17:30:00,33.05,33.0,1,-29.98
 03/09/2018 17:45:00,33.08,33.0,1,-30.14
 03/09/2018 18:00:00,33.07,33.0,1,-29.92
 03/09/2018 18:15:00,33.15,33.0,1,-29.61
 03/09/2018 18:30:00,33.19,33.0,1,-28.97
 03/09/2018 18:45:00,33.17,33.0,1,-28.39
 03/09/2018 19:00:00,33.14,33.0,1,-28.3
 03/09/2018 19:15:00,33.19,33.0,1,-27.69
 03/09/2018 19:30:00,33.22,33.0,1,-27.29
 03/09/2018 19:45:00,33.22,33.0,1,-27.29
 03/09/2018 20:00:00,33.24,33.0,1,-27.04
 03/09/2018 20:15:00,33.2,33.0,1,-27.13
 03/09/2018 20:30:00,33.25,33.0,1,-27.29
 03/09/2018 20:45:00,33.27,33.0,1,-27.19
 03/09/2018 21:00:00,33.34,33.0,1,-26.48
 03/09/2018 21:15:00,33.25,33.0,1,-25.87
 03/09/2018 21:30:00,33.14,33.0,1,-24.92
 03/09/2018 21:45:00,33.08,33.0,1,-23.78
 03/09/2018 22:00:00,33.15,33.0,1,-23.48
 03/09/2018 22:15:00,33.14,33.0,1,-22.73
 03/09/2018 22:30:00,33.17,33.0,1,-21.75
 03/09/2018 22:45:00,33.26,33.0,1,-20.96
 03/09/2018 23:00:00,33.33,33.0,1,-19.99
 03/09/2018 23:15:00,33.26,33.0,1,-19.31
 03/09/2018 23:30:00,33.08,33.0,1,-18.74
 03/09/2018 23:45:00,33.2,33.0,1,-18.33
 04/09/2018 00:00:00,33.18,33.0,1,-17.75
 04/09/2018 00:15:00,32.94,33.0,1,-17.64
 04/09/2018 00:30:00,33.01,33.0,1,-17.25
 04/09/2018 00:45:00,33.1,33.0,1,-16.76
 04/09/2018 01:00:00,33.09,33.0,1,-16.55
 04/09/2018 01:15:00,33.09,33.0,1,-17.01
 04/09/2018 01:30:00,33.12,33.0,1,-17.08
 04/09/2018 01:45:00,33.16,33.0,1,-17.08
 04/09/2018 02:00:00,33.17,33.0,1,-17.08
 04/09/2018 02:15:00,33.18,33.0,1,-16.79
 04/09/2018 02:30:00,33.18,33.0,1,-16.41
 04/09/2018 02:45:00,33.13,33.0,1,-16.41
 04/09/2018 03:00:00,33.12,33.0,1,-16.41
 04/09/2018 03:15:00,33.13,33.0,1,-16.41
 04/09/2018 03:30:00,33.11,33.0,1,-15.74
 04/09/2018 03:45:00,33.13,33.0,1,-15.74
 04/09/2018 04:00:00,33.11,33.0,1,-16.11
 04/09/2018 04:15:00,33.1,33.0,1,-16.24
 04/09/2018 04:30:00,33.13,33.0,1,-16.24
 04/09/2018 04:45:00,33.1,33.0,1,-16.24
 04/09/2018 05:00:00,33.06,33.0,1,-16.24
 04/09/2018 05:15:00,33.05,33.0,1,-16.61
 04/09/2018 05:30:00,33.0,33.0,1,-16.88
 04/09/2018 05:45:00,32.98,33.0,1,-17.41
 04/09/2018 06:00:00,32.95,33.0,1,-18.03
 04/09/2018 06:15:00,32.83,33.0,1,-19.2
 04/09/2018 06:30:00,32.77,33.0,1,-20.25
 04/09/2018 06:45:00,32.84,33.0,1,-21.07
 04/09/2018 07:00:00,32.81,33.0,1,-21.88
 04/09/2018 07:15:00,32.59,33.0,1,-23.58
 04/09/2018 07:30:00,32.67,33.0,1,-24.89
 04/09/2018 07:45:00,32.78,33.0,1,-25.74
 04/09/2018 08:00:00,32.75,33.0,1,-26.34
 04/09/2018 08:15:00,32.65,33.0,1,-27.47
 04/09/2018 08:30:00,32.67,33.0,1,-28.77
 04/09/2018 08:45:00,32.76,33.0,1,-29.3
 04/09/2018 09:00:00,32.89,33.0,1,-29.69
 04/09/2018 09:15:00,32.91,33.0,1,-29.46
 04/09/2018 09:30:00,32.89,33.0,1,-29.55
 04/09/2018 09:45:00,32.88,33.0,1,-29.64
 04/09/2018 10:00:00,32.92,33.0,1,-29.74
 04/09/2018 10:15:00,33.12,33.0,1,-29.19
 04/09/2018 10:30:00,33.03,33.0,1,-29.07
 04/09/2018 10:45:00,33.02,33.0,1,-29.47
 04/09/2018 11:00:00,32.99,33.0,1,-29.47
 04/09/2018 11:15:00,32.94,33.0,1,-29.47
 04/09/2018 11:30:00,33.0,33.0,1,-29.13
 04/09/2018 11:45:00,33.02,33.0,1,-28.63
 04/09/2018 12:00:00,33.02,33.0,1,-28.63
 04/09/2018 12:15:00,33.04,33.0,1,-28.63
 04/09/2018 12:30:00,33.09,33.0,1,-28.47
 04/09/2018 12:45:00,33.13,33.0,1,-28.13
 04/09/2018 13:00:00,33.12,33.0,1,-28.13
 04/09/2018 13:15:00,33.12,33.0,1,-28.13
 04/09/2018 13:30:00,33.2,33.0,1,-27.96
 04/09/2018 13:45:00,33.2,33.0,1,-27.46
 04/09/2018 14:00:00,33.17,33.0,1,-27.46
 04/09/2018 14:15:00,33.11,33.0,1,-27.18
 04/09/2018 14:30:00,33.19,33.0,1,-26.63
 04/09/2018 14:45:00,33.12,33.0,1,-26.84
 04/09/2018 15:00:00,33.09,33.0,1,-26.37
 04/09/2018 15:15:00,33.15,33.0,1,-25.62
 04/09/2018 15:30:00,33.14,33.0,1,-26.12
 04/09/2018 15:45:00,33.07,33.0,1,-26.12
 04/09/2018 16:00:00,33.0,33.0,1,-26.92
 04/09/2018 16:15:00,33.0,33.0,1,-27.75
 04/09/2018 16:30:00,32.98,33.0,1,-28.45
 04/09/2018 16:45:00,32.94,33.0,1,-29.14
 04/09/2018 17:00:00,32.94,33.0,1,-29.14
 04/09/2018 17:15:00,32.95,33.0,1,-29.14
 04/09/2018 17:30:00,32.91,33.0,1,-29.14
 04/09/2018 17:45:00,32.97,33.0,1,-29.14
 04/09/2018 18:00:00,33.01,33.0,1,-28.88
 04/09/2018 18:15:00,33.03,33.0,1,-28.93
 04/09/2018 18:30:00,33.06,33.0,1,-28.47
 04/09/2018 18:45:00,33.04,33.0,1,-27.88
 04/09/2018 19:00:00,33.07,33.0,1,-27.71
 04/09/2018 19:15:00,33.09,33.0,1,-27.14
 04/09/2018 19:30:00,33.1,33.0,1,-27.63
 04/09/2018 19:45:00,33.1,33.0,1,-27.63
 04/09/2018 20:00:00,33.1,33.0,1,-27.12
 04/09/2018 20:15:00,33.03,33.0,1,-27.53
 04/09/2018 20:30:00,33.07,33.0,1,-26.96
 04/09/2018 20:45:00,33.16,33.0,1,-26.67
 04/09/2018 21:00:00,33.31,33.0,1,-25.89
 04/09/2018 21:15:00,33.35,33.0,1,-25.46
 04/09/2018 21:30:00,33.27,33.0,1,-24.79
 04/09/2018 21:45:00,33.03,33.0,1,-23.66
 04/09/2018 22:00:00,33.01,33.0,1,-22.87
 04/09/2018 22:15:00,33.08,33.0,1,-22.0
 04/09/2018 22:30:00,32.99,33.0,1,-21.11
 04/09/2018 22:45:00,33.03,33.0,1,-20.15
 04/09/2018 23:00:00,33.11,33.0,1,-19.64
 04/09/2018 23:15:00,33.11,33.0,1,-19.11
 04/09/2018 23:30:00,33.1,33.0,1,-18.27
 04/09/2018 23:45:00,33.19,33.0,1,-17.66
 05/09/2018 00:00:00,33.17,33.0,1,-17.28
 05/09/2018 00:15:00,33.03,33.0,1,-17.08
 05/09/2018 00:30:00,33.0,33.0,1,-16.69
 05/09/2018 00:45:00,33.01,33.0,1,-16.03
 05/09/2018 01:00:00,32.99,33.0,1,-15.91
 05/09/2018 01:15:00,33.0,33.0,1,-16.4
 05/09/2018 01:30:00,33.06,33.0,1,-16.41
 05/09/2018 01:45:00,33.04,33.0,1,-16.41
 05/09/2018 02:00:00,33.09,33.0,1,-16.41
 05/09/2018 02:15:00,33.1,33.0,1,-16.27
 05/09/2018 02:30:00,33.14,33.0,1,-15.91
 05/09/2018 02:45:00,33.17,33.0,1,-15.78
 05/09/2018 03:00:00,33.07,33.0,1,-15.41
 05/09/2018 03:15:00,33.04,33.0,1,-15.41
 05/09/2018 03:30:00,33.05,33.0,1,-15.41
 05/09/2018 03:45:00,33.06,33.0,1,-15.09
 05/09/2018 04:00:00,33.07,33.0,1,-14.9
 05/09/2018 04:15:00,33.08,33.0,1,-15.16
 05/09/2018 04:30:00,33.1,33.0,1,-15.18
 05/09/2018 04:45:00,33.04,33.0,1,-15.41
 05/09/2018 05:00:00,33.03,33.0,1,-15.41
 05/09/2018 05:15:00,33.06,33.0,1,-15.67
 05/09/2018 05:30:00,32.99,33.0,1,-15.79
 05/09/2018 05:45:00,32.92,33.0,1,-16.13
 05/09/2018 06:00:00,32.88,33.0,1,-16.93
 05/09/2018 06:15:00,32.72,33.0,1,-18.52
 05/09/2018 06:30:00,32.69,33.0,1,-16.57
 05/09/2018 06:45:00,32.66,33.0,1,-17.27
 05/09/2018 07:00:00,32.78,33.0,1,-22.02
 05/09/2018 07:15:00,32.72,33.0,1,-23.45
 05/09/2018 07:30:00,32.64,33.0,1,-23.95
 05/09/2018 07:45:00,32.69,33.0,1,-25.04
 05/09/2018 08:00:00,32.74,33.0,1,-25.67
 05/09/2018 08:15:00,32.78,33.0,1,-25.83
 05/09/2018 08:30:00,32.94,33.0,1,-25.46
 05/09/2018 08:45:00,32.98,33.0,1,-18.48
 05/09/2018 09:00:00,32.96,33.0,1,-17.19
 05/09/2018 09:15:00,32.84,33.0,1,-24.33
 05/09/2018 09:30:00,32.96,33.0,1,-25.23
 05/09/2018 09:45:00,32.95,33.0,1,-24.69
 05/09/2018 10:00:00,33.0,33.0,1,-24.71
 05/09/2018 10:15:00,33.01,33.0,1,-24.2
 05/09/2018 10:30:00,33.01,33.0,1,-24.32
 05/09/2018 10:45:00,33.01,33.0,1,-24.27
 05/09/2018 11:00:00,32.99,33.0,1,-23.98
 05/09/2018 11:15:00,32.93,33.0,1,-24.21
 05/09/2018 11:30:00,32.93,33.0,1,-23.52
 05/09/2018 11:45:00,32.92,33.0,1,-24.6
 05/09/2018 12:00:00,32.9,33.0,1,-24.3
 05/09/2018 12:15:00,32.9,33.0,1,-24.38
 05/09/2018 12:30:00,32.89,33.0,1,-24.65
 05/09/2018 12:45:00,32.91,33.0,1,-24.76
 05/09/2018 13:00:00,32.91,33.0,1,-25.6
 05/09/2018 13:15:00,32.93,33.0,1,-24.38
 05/09/2018 13:30:00,32.96,33.0,1,-23.85
 05/09/2018 13:45:00,32.95,33.0,1,-23.66
 05/09/2018 14:00:00,32.95,33.0,1,-24.18
 05/09/2018 14:15:00,32.92,33.0,1,-23.77
 05/09/2018 14:30:00,32.91,33.0,1,-23.9
 05/09/2018 14:45:00,32.93,33.0,1,-22.87
 05/09/2018 15:00:00,32.98,33.0,1,-23.56
 05/09/2018 15:15:00,33.02,33.0,1,-23.19
 05/09/2018 15:30:00,33.02,33.0,1,-22.77
 05/09/2018 15:45:00,32.99,33.0,1,-23.22
 05/09/2018 16:00:00,32.99,33.0,1,-23.97
 05/09/2018 16:15:00,33.11,33.0,1,-24.11
 05/09/2018 16:30:00,33.06,33.0,1,-24.78
 05/09/2018 16:45:00,33.01,33.0,1,-25.47
 05/09/2018 17:00:00,33.03,33.0,1,-25.79
 05/09/2018 17:15:00,33.11,33.0,1,-26.28
 05/09/2018 17:30:00,33.09,33.0,1,-26.54
 05/09/2018 17:45:00,33.14,33.0,1,-26.29
 05/09/2018 18:00:00,33.16,33.0,1,-26.87
 05/09/2018 18:15:00,33.19,33.0,1,-26.88
 05/09/2018 18:30:00,33.26,33.0,1,-26.29
 05/09/2018 18:45:00,33.28,33.0,1,-26.29
 05/09/2018 19:00:00,33.28,33.0,1,-26.29
 05/09/2018 19:15:00,33.28,33.0,1,-26.29
 05/09/2018 19:30:00,33.27,33.0,1,-26.29
 05/09/2018 19:45:00,33.28,33.0,1,-26.14
 05/09/2018 20:00:00,33.27,33.0,1,-26.2
 05/09/2018 20:15:00,33.2,33.0,1,-26.05
 05/09/2018 20:30:00,33.23,33.0,1,-26.46
 05/09/2018 20:45:00,33.31,33.0,1,-26.03
 05/09/2018 21:00:00,33.35,33.0,1,-25.32
 05/09/2018 21:15:00,33.17,33.0,1,-24.85
 05/09/2018 21:30:00,33.05,33.0,1,-24.1
 05/09/2018 21:45:00,33.0,33.0,1,-23.35
 05/09/2018 22:00:00,33.01,33.0,1,-22.76
 05/09/2018 22:15:00,33.07,33.0,1,-21.77
 05/09/2018 22:30:00,33.11,33.0,1,-20.77
 05/09/2018 22:45:00,33.17,33.0,1,-19.86
 05/09/2018 23:00:00,33.25,33.0,1,-19.39
 05/09/2018 23:15:00,33.34,33.0,1,-18.87
 05/09/2018 23:30:00,33.14,33.0,1,-18.38
 05/09/2018 23:45:00,32.95,33.0,1,-17.4
 06/09/2018 00:00:00,32.96,33.0,1,-16.85
 06/09/2018 00:15:00,32.99,33.0,1,-16.58
 06/09/2018 00:30:00,33.05,33.0,1,-16.44
 06/09/2018 00:45:00,33.09,33.0,1,-16.08
 06/09/2018 01:00:00,33.12,33.0,1,-16.08
 06/09/2018 01:15:00,33.05,33.0,1,-16.53
 06/09/2018 01:30:00,33.01,33.0,1,-16.5
 06/09/2018 01:45:00,32.98,33.0,1,-16.08
 06/09/2018 02:00:00,33.08,33.0,1,-16.08
 06/09/2018 02:15:00,33.09,33.0,1,-15.89
 06/09/2018 02:30:00,33.12,33.0,1,-15.41
 06/09/2018 02:45:00,33.17,33.0,1,-15.41
 06/09/2018 03:00:00,33.23,33.0,1,-15.41
 06/09/2018 03:15:00,33.22,33.0,1,-15.13
 06/09/2018 03:30:00,33.21,33.0,1,-15.24
 06/09/2018 03:45:00,33.23,33.0,1,-15.24
 06/09/2018 04:00:00,33.27,33.0,1,-15.24
 06/09/2018 04:15:00,33.23,33.0,1,-15.24
 06/09/2018 04:30:00,33.17,33.0,1,-15.21
 06/09/2018 04:45:00,33.1,33.0,1,-14.74
 06/09/2018 05:00:00,33.05,33.0,1,-14.74
 06/09/2018 05:15:00,32.97,33.0,1,-15.22
 06/09/2018 05:30:00,32.92,33.0,1,-15.63
 06/09/2018 05:45:00,32.91,33.0,1,-16.1
 06/09/2018 06:00:00,32.81,33.0,1,-16.8
 06/09/2018 06:15:00,32.59,33.0,1,-18.15
 06/09/2018 06:30:00,32.71,33.0,1,-19.4
 06/09/2018 06:45:00,32.76,33.0,1,-20.39
 06/09/2018 07:00:00,32.73,33.0,1,-21.78
 06/09/2018 07:15:00,32.72,33.0,1,-22.97
 06/09/2018 07:30:00,32.66,33.0,1,-23.78
 06/09/2018 07:45:00,32.69,33.0,1,-24.81
 06/09/2018 08:00:00,32.75,33.0,1,-25.66
 06/09/2018 08:15:00,32.84,33.0,1,-26.12
 06/09/2018 08:30:00,32.91,33.0,1,-25.59
 06/09/2018 08:45:00,32.86,33.0,1,-25.72
 06/09/2018 09:00:00,32.85,33.0,1,-26.2
 06/09/2018 09:15:00,32.74,33.0,1,-27.57
 06/09/2018 09:30:00,32.77,33.0,1,-27.99
 06/09/2018 09:45:00,32.77,33.0,1,-28.61
 06/09/2018 10:00:00,32.71,33.0,1,-29.53
 06/09/2018 10:15:00,32.78,33.0,1,-28.41
 06/09/2018 10:30:00,32.83,33.0,1,-27.71
 06/09/2018 10:45:00,32.84,33.0,1,-27.04
 06/09/2018 11:00:00,32.83,33.0,1,-26.31
 06/09/2018 11:15:00,32.84,33.0,1,-25.48
 06/09/2018 11:30:00,32.87,33.0,1,-25.39
 06/09/2018 11:45:00,32.82,33.0,1,-26.21
 06/09/2018 12:00:00,32.87,33.0,1,-25.44
 06/09/2018 12:15:00,32.83,33.0,1,-25.2
 06/09/2018 12:30:00,32.81,33.0,1,-25.72
 06/09/2018 12:45:00,32.8,33.0,1,-26.44
 06/09/2018 13:00:00,32.78,33.0,1,-26.31
 06/09/2018 13:15:00,32.87,33.0,1,-26.69
 06/09/2018 13:30:00,32.88,33.0,1,-26.08
 06/09/2018 13:45:00,32.9,33.0,1,-25.1
 06/09/2018 14:00:00,32.88,33.0,1,-25.61
 06/09/2018 14:15:00,32.82,33.0,1,-26.15
 06/09/2018 14:30:00,32.85,33.0,1,-26.21
 06/09/2018 14:45:00,32.86,33.0,1,-26.69
 06/09/2018 15:00:00,32.87,33.0,1,-26.36
 06/09/2018 15:15:00,32.87,33.0,1,-26.87
 06/09/2018 15:30:00,32.91,33.0,1,-27.01
 06/09/2018 15:45:00,32.86,33.0,1,-27.03
 06/09/2018 16:00:00,32.84,33.0,1,-27.29
 06/09/2018 16:15:00,32.89,33.0,1,-28.13
 06/09/2018 16:30:00,32.9,33.0,1,-27.99
 06/09/2018 16:45:00,32.83,33.0,1,-28.63
 06/09/2018 17:00:00,32.86,33.0,1,-28.43
 06/09/2018 17:15:00,32.89,33.0,1,-27.97
 06/09/2018 17:30:00,32.87,33.0,1,-27.96
 06/09/2018 17:45:00,32.88,33.0,1,-28.71
 06/09/2018 18:00:00,32.91,33.0,1,-28.19
 06/09/2018 18:15:00,32.91,33.0,1,-28.63
 06/09/2018 18:30:00,32.95,33.0,1,-28.28
 06/09/2018 18:45:00,32.97,33.0,1,-27.5
 06/09/2018 19:00:00,32.98,33.0,1,-27.72
 06/09/2018 19:15:00,32.98,33.0,1,-27.65
 06/09/2018 19:30:00,33.07,33.0,1,-27.05
 06/09/2018 19:45:00,33.05,33.0,1,-26.79
 06/09/2018 20:00:00,33.08,33.0,1,-26.79
 06/09/2018 20:15:00,33.1,33.0,1,-26.79
 06/09/2018 20:30:00,33.19,33.0,1,-26.58
 06/09/2018 20:45:00,33.17,33.0,1,-26.29
 06/09/2018 21:00:00,33.22,33.0,1,-25.86
 06/09/2018 21:15:00,33.22,33.0,1,-25.34
 06/09/2018 21:30:00,32.98,33.0,1,-24.71
 06/09/2018 21:45:00,33.0,33.0,1,-23.84
 06/09/2018 22:00:00,33.01,33.0,1,-23.31
 06/09/2018 22:15:00,33.01,33.0,1,-22.39
 06/09/2018 22:30:00,32.99,33.0,1,-21.58
 06/09/2018 22:45:00,33.12,33.0,1,-20.61
 06/09/2018 23:00:00,33.16,33.0,1,-20.13
 06/09/2018 23:15:00,32.99,33.0,1,-19.06
 06/09/2018 23:30:00,32.82,33.0,1,-18.35
 06/09/2018 23:45:00,32.88,33.0,1,-17.58
 07/09/2018 00:00:00,32.96,33.0,1,-16.99
 07/09/2018 00:15:00,33.0,33.0,1,-16.91
 07/09/2018 00:30:00,33.05,33.0,1,-16.7
 07/09/2018 00:45:00,33.08,33.0,1,-16.4
 07/09/2018 01:00:00,33.11,33.0,1,-15.75
 07/09/2018 01:15:00,33.11,33.0,1,-16.74
 07/09/2018 01:30:00,33.16,33.0,1,-16.63
 07/09/2018 01:45:00,33.15,33.0,1,-16.24
 07/09/2018 02:00:00,33.21,33.0,1,-16.24
 07/09/2018 02:15:00,33.25,33.0,1,-16.24
 07/09/2018 02:30:00,33.25,33.0,1,-16.24
 07/09/2018 02:45:00,33.12,33.0,1,-16.2
 07/09/2018 03:00:00,33.04,33.0,1,-15.57
 07/09/2018 03:15:00,32.98,33.0,1,-15.57
 07/09/2018 03:30:00,33.01,33.0,1,-15.57
 07/09/2018 03:45:00,32.97,33.0,1,-15.57
 07/09/2018 04:00:00,32.98,33.0,1,-15.34
 07/09/2018 04:15:00,32.96,33.0,1,-15.32
 07/09/2018 04:30:00,32.98,33.0,1,-15.57
 07/09/2018 04:45:00,32.9,33.0,1,-15.57
 07/09/2018 05:00:00,32.94,33.0,1,-15.57
 07/09/2018 05:15:00,32.85,33.0,1,-15.86
 07/09/2018 05:30:00,32.88,33.0,1,-16.24
 07/09/2018 05:45:00,32.81,33.0,1,-16.73
 07/09/2018 06:00:00,32.76,33.0,1,-17.82
 07/09/2018 06:15:00,32.71,33.0,1,-19.22
 07/09/2018 06:30:00,32.8,33.0,1,-20.26
 07/09/2018 06:45:00,32.67,33.0,1,-21.14
 07/09/2018 07:00:00,32.64,33.0,1,-22.41
 07/09/2018 07:15:00,32.63,33.0,1,-24.18
 07/09/2018 07:30:00,32.98,33.0,1,-24.96
 07/09/2018 07:45:00,32.99,33.0,1,-25.65
 07/09/2018 08:00:00,32.94,33.0,1,-25.96
 07/09/2018 08:15:00,32.91,33.0,1,-26.29
 07/09/2018 08:30:00,32.86,33.0,1,-25.79
 07/09/2018 08:45:00,32.86,33.0,1,-25.28
 07/09/2018 09:00:00,32.92,33.0,1,-25.24
 07/09/2018 09:15:00,32.9,33.0,1,-24.98
 07/09/2018 09:30:00,32.93,33.0,1,-24.78
 07/09/2018 09:45:00,32.94,33.0,1,-25.31
 07/09/2018 10:00:00,32.95,33.0,1,-25.84
 07/09/2018 10:15:00,32.96,33.0,1,-25.7
 07/09/2018 10:30:00,32.98,33.0,1,-25.13
 07/09/2018 10:45:00,32.93,33.0,1,-25.51
 07/09/2018 11:00:00,32.92,33.0,1,-25.46
 07/09/2018 11:15:00,32.92,33.0,1,-24.84
 07/09/2018 11:30:00,32.92,33.0,1,-24.6
 07/09/2018 11:45:00,32.89,33.0,1,-24.28
 07/09/2018 12:00:00,32.92,33.0,1,-24.52
 07/09/2018 12:15:00,32.97,33.0,1,-24.46
 07/09/2018 12:30:00,33.06,33.0,1,-24.5
 07/09/2018 12:45:00,33.09,33.0,1,-24.24
 07/09/2018 13:00:00,33.09,33.0,1,-23.97
 07/09/2018 13:15:00,33.15,33.0,1,-23.27
 07/09/2018 13:30:00,33.17,33.0,1,-22.79
 07/09/2018 13:45:00,33.17,33.0,1,-22.64
 07/09/2018 14:00:00,33.21,33.0,1,-21.63
 07/09/2018 14:15:00,33.22,33.0,1,-21.52
 07/09/2018 14:30:00,33.21,33.0,1,-21.81
 07/09/2018 14:45:00,33.27,33.0,1,-21.49
 07/09/2018 15:00:00,33.29,33.0,1,-21.91
 07/09/2018 15:15:00,33.34,33.0,1,-21.76
 07/09/2018 15:30:00,33.36,33.0,1,-21.17
 07/09/2018 15:45:00,33.3,33.0,1,-21.62
 07/09/2018 16:00:00,33.15,33.0,1,-22.47
 07/09/2018 16:15:00,33.02,33.0,1,-23.3
 07/09/2018 16:30:00,32.98,33.0,1,-23.5
 07/09/2018 16:45:00,32.94,33.0,1,-24.39
 07/09/2018 17:00:00,32.95,33.0,1,-24.79
 07/09/2018 17:15:00,32.96,33.0,1,-25.16
 07/09/2018 17:30:00,32.87,33.0,1,-25.59
 07/09/2018 17:45:00,32.91,33.0,1,-25.8
 07/09/2018 18:00:00,32.93,33.0,1,-25.79
 07/09/2018 18:15:00,32.91,33.0,1,-26.07
 07/09/2018 18:30:00,32.84,33.0,1,-26.14
 07/09/2018 18:45:00,32.88,33.0,1,-26.18
 07/09/2018 19:00:00,32.91,33.0,1,-26.22
 07/09/2018 19:15:00,32.9,33.0,1,-26.12
 07/09/2018 19:30:00,32.91,33.0,1,-26.12
 07/09/2018 19:45:00,32.9,33.0,1,-26.12
 07/09/2018 20:00:00,32.93,33.0,1,-26.49
 07/09/2018 20:15:00,33.09,33.0,1,-26.91
 07/09/2018 20:30:00,33.18,33.0,1,-26.79
 07/09/2018 20:45:00,33.1,33.0,1,-25.84
 07/09/2018 21:00:00,32.99,33.0,1,-25.05
 07/09/2018 21:15:00,32.85,33.0,1,-24.51
 07/09/2018 21:30:00,32.9,33.0,1,-23.61
 07/09/2018 21:45:00,32.9,33.0,1,-23.0
 07/09/2018 22:00:00,32.92,33.0,1,-22.35
 07/09/2018 22:15:00,32.86,33.0,1,-21.87
 07/09/2018 22:30:00,32.83,33.0,1,-20.62
 07/09/2018 22:45:00,32.93,33.0,1,-19.83
 07/09/2018 23:00:00,32.8,33.0,1,-19.37
 07/09/2018 23:15:00,32.87,33.0,1,-19.08
 07/09/2018 23:30:00,32.91,33.0,1,-18.42
 07/09/2018 23:45:00,33.0,33.0,1,-16.0
 08/09/2018 00:00:00,33.13,33.0,1,-13.34
 08/09/2018 00:15:00,33.19,33.0,1,-16.9
 08/09/2018 00:30:00,33.24,33.0,1,-16.56
 08/09/2018 00:45:00,33.25,33.0,1,-16.41
 08/09/2018 01:00:00,33.27,33.0,1,-15.94
 08/09/2018 01:15:00,33.22,33.0,1,-16.64
 08/09/2018 01:30:00,33.28,33.0,1,-16.41
 08/09/2018 01:45:00,33.29,33.0,1,-16.38
 08/09/2018 02:00:00,33.22,33.0,1,-15.91
 08/09/2018 02:15:00,33.16,33.0,1,-15.91
 08/09/2018 02:30:00,33.19,33.0,1,-15.91
 08/09/2018 02:45:00,33.19,33.0,1,-15.91
 08/09/2018 03:00:00,33.17,33.0,1,-15.3
 08/09/2018 03:15:00,33.03,33.0,1,-15.24
 08/09/2018 03:30:00,33.11,33.0,1,-14.93
 08/09/2018 03:45:00,33.17,33.0,1,-11.25
 08/09/2018 04:00:00,33.16,33.0,1,-11.54
 08/09/2018 04:15:00,33.14,33.0,1,-14.07
 08/09/2018 04:30:00,33.18,33.0,1,-14.07
 08/09/2018 04:45:00,33.14,33.0,1,-14.21
 08/09/2018 05:00:00,33.13,33.0,1,-14.57
 08/09/2018 05:15:00,33.11,33.0,1,-14.57
 08/09/2018 05:30:00,33.16,33.0,1,-14.57
 08/09/2018 05:45:00,33.01,33.0,1,-15.11
 08/09/2018 06:00:00,32.92,33.0,1,-15.24
 08/09/2018 06:15:00,32.81,33.0,1,-15.78
 08/09/2018 06:30:00,32.78,33.0,1,-16.41
 08/09/2018 06:45:00,32.68,33.0,1,-16.6
 08/09/2018 07:00:00,32.65,33.0,1,-16.97
 08/09/2018 07:15:00,32.64,33.0,1,-18.05
 08/09/2018 07:30:00,32.7,33.0,1,-19.15
 08/09/2018 07:45:00,32.75,33.0,1,-19.76
 08/09/2018 08:00:00,33.11,33.0,1,-20.41
 08/09/2018 08:15:00,33.03,33.0,1,-21.29
 08/09/2018 08:30:00,32.89,33.0,1,-21.82
 08/09/2018 08:45:00,32.79,33.0,1,-22.67
 08/09/2018 09:00:00,32.68,33.0,1,-23.39
 08/09/2018 09:15:00,32.66,33.0,1,-23.74
 08/09/2018 09:30:00,32.68,33.0,1,-23.95
 08/09/2018 09:45:00,32.67,33.0,1,-23.95
 08/09/2018 10:00:00,32.7,33.0,1,-24.05
 08/09/2018 10:15:00,32.72,33.0,1,-24.13
 08/09/2018 10:30:00,32.62,33.0,1,-24.0
 08/09/2018 10:45:00,32.64,33.0,1,-23.95
 08/09/2018 11:00:00,32.65,33.0,1,-23.95
 08/09/2018 11:15:00,32.69,33.0,1,-23.95
 08/09/2018 11:30:00,32.63,33.0,1,-23.94
 08/09/2018 11:45:00,32.67,33.0,1,-23.02
 08/09/2018 12:00:00,32.72,33.0,1,-22.67
 08/09/2018 12:15:00,32.78,33.0,1,-22.9
 08/09/2018 12:30:00,32.8,33.0,1,-23.08
 08/09/2018 12:45:00,32.83,33.0,1,-23.44
 08/09/2018 13:00:00,32.89,33.0,1,-22.95
 08/09/2018 13:15:00,32.92,33.0,1,-22.66
 08/09/2018 13:30:00,32.91,33.0,1,-22.65
 08/09/2018 13:45:00,32.93,33.0,1,-22.94
 08/09/2018 14:00:00,32.99,33.0,1,-22.82
 08/09/2018 14:15:00,33.01,33.0,1,-22.29
 08/09/2018 14:30:00,33.05,33.0,1,-22.77
 08/09/2018 14:45:00,33.03,33.0,1,-22.77
 08/09/2018 15:00:00,33.01,33.0,1,-22.77
 08/09/2018 15:15:00,33.07,33.0,1,-22.41
 08/09/2018 15:30:00,33.16,33.0,1,-22.1
 08/09/2018 15:45:00,33.08,33.0,1,-22.1
 08/09/2018 16:00:00,33.05,33.0,1,-22.1
 08/09/2018 16:15:00,33.02,33.0,1,-22.34
 08/09/2018 16:30:00,32.99,33.0,1,-22.71
 08/09/2018 16:45:00,32.87,33.0,1,-23.28
 08/09/2018 17:00:00,32.83,33.0,1,-23.52
 08/09/2018 17:15:00,32.77,33.0,1,-23.95
 08/09/2018 17:30:00,32.74,33.0,1,-24.34
 08/09/2018 17:45:00,32.67,33.0,1,-24.75
 08/09/2018 18:00:00,32.71,33.0,1,-24.45
 08/09/2018 18:15:00,32.72,33.0,1,-24.58
 08/09/2018 18:30:00,32.71,33.0,1,-24.69
 08/09/2018 18:45:00,32.81,33.0,1,-24.95
 08/09/2018 19:00:00,32.85,33.0,1,-24.95
 08/09/2018 19:15:00,32.85,33.0,1,-24.95
 08/09/2018 19:30:00,32.86,33.0,1,-24.62
 08/09/2018 19:45:00,32.87,33.0,1,-24.78
 08/09/2018 20:00:00,32.77,33.0,1,-24.19
 08/09/2018 20:15:00,32.68,33.0,1,-23.88
 08/09/2018 20:30:00,32.72,33.0,1,-23.44
 08/09/2018 20:45:00,32.75,33.0,1,-23.25
 08/09/2018 21:00:00,32.82,33.0,1,-22.63
 08/09/2018 21:15:00,32.85,33.0,1,-22.27
 08/09/2018 21:30:00,32.98,33.0,1,-21.77
 08/09/2018 21:45:00,33.07,33.0,1,-21.15
 08/09/2018 22:00:00,32.99,33.0,1,-20.94
 08/09/2018 22:15:00,32.97,33.0,1,-20.15
 08/09/2018 22:30:00,32.99,33.0,1,-19.57